User: anonymous   Login
Location: Unspecified
(0.0000°N, 0.0000°E)
Time: 16:15:09
(UTC+00:00)
Language:

Telstar 1 - Orbit

View from above orbital plane
View from above orbital plane
View from above satellite
View from above satellite

Ground track
Ground track

The orbit data is extracted from the following two-line orbital elements,

1   340U 62029A   19015.18674208 -.00000170 +00000-0 -10331-2 0  9998
2   340 044.8026 322.6201 2424739 154.3650 345.7591 09.12861081884936
Epoch (UTC): 15 January 2019 04:28:54
Eccentricity: 0.2424739
inclination: 44.8026°
perigee height: 948 km
apogee height: 5637 km
right ascension of ascending node: 322.6201°
argument of perigee: 154.3650°
revolutions per day: 9.12861081
mean anomaly at epoch: 345.7591°
orbit number at epoch: 88493

The dashed part of the orbit path shows where the satellite is in the earth's shadow,  

DLR